This is the latest recevied weather packets stored in our database for station/object KC3UTO. If no packets are shown the sender has not sent any weather packets the latest 1 day(s).
| Time | Temp. | Humidity | Pressure | Rain* | Wind** | Luminosity | Snow |
|---|---|---|---|---|---|---|---|
| 1778111262 | 18.89° C | 84% | 1006.9 hPa | 0 mm | - | 3 W/m² | - |
| 1778110657 | 18.89° C | 83% | 1006.9 hPa | 0 mm | - | 3 W/m² | - |
| 1778110050 | 18.89° C | 82% | 1006.9 hPa | 0 mm | - | 5 W/m² | - |
| 1778109750 | 18.89° C | 82% | 1006.9 hPa | 0 mm | - | 5 W/m² | - |
| 1778109146 | 18.89° C | 81% | 1006.8 hPa | 0 mm | - | 20 W/m² | - |
| 1778107933 | 18.89° C | 80% | 1006.7 hPa | 0 mm | - | 21 W/m² | - |
| 1778106111 | 18.89° C | 83% | 1006.5 hPa | 0 mm | - | 79 W/m² | - |
| 1778104291 | 18.89° C | 83% | 1006.6 hPa | 0 mm | - | 66 W/m² | - |
| 1778103988 | 18.89° C | 84% | 1006.5 hPa | 0 mm | - | 104 W/m² | - |
| 1778103384 | 18.89° C | 84% | 1006.4 hPa | 0 mm | - | 44 W/m² | - |
| 1778101866 | 18.33° C | 86% | 1006.2 hPa | 0 mm | - | 190 W/m² | - |
| 1778101259 | 17.78° C | 87% | 1006.3 hPa | 0 mm | - | 191 W/m² | - |
| 1778099138 | 17.22° C | 89% | 1006.3 hPa | 0 mm | - | 53 W/m² | - |
| 1778096106 | 16.67° C | 92% | 1006.6 hPa | 0 mm | - | 121 W/m² | - |
| 1778094286 | 16.11° C | 92% | 1006.8 hPa | 0 mm | - | 116 W/m² | - |
| 1778092771 | 16.11° C | 92% | 1007 hPa | 0.51 mm | - | 82 W/m² | - |
| 1778092466 | 16.11° C | 93% | 1007.2 hPa | 0.51 mm | - | 80 W/m² | - |
| 1778090042 | 15.56° C | 93% | 1007.1 hPa | 0 mm | - | 44 W/m² | - |
| 1778089134 | 15.56° C | 93% | 1007.2 hPa | 0 mm | - | 48 W/m² | - |
| 1778088830 | 15.56° C | 93% | 1007.3 hPa | 0.51 mm | - | 43 W/m² | - |
| 1778086712 | 16.11° C | 92% | 1007.6 hPa | 0 mm | - | 29 W/m² | - |
| 1778085194 | 16.11° C | 92% | 1007.8 hPa | 1.27 mm | - | 108 W/m² | - |
| 1778084588 | 16.11° C | 93% | 1007 hPa | 1.78 mm | - | 226 W/m² | - |
| 1778084285 | 16.11° C | 93% | 1006.8 hPa | 1.27 mm | - | 185 W/m² | - |
| 1778083680 | 16.11° C | 92% | 1007.6 hPa | 1.27 mm | - | 102 W/m² | - |
* Rain latest hour (hover to see other rain measurements)
** Current wind speed in m/s (hover to see current wind gust speed)